Regional Weather Roundup
Issued by NWS

Home | Current Version | Previous Version | Graphics & Text | Print | Product List | Glossary Off
Versions: 1 2 3 4 5 6 7 8 9 10 11 12 13 14 15 16 17 18 19 20 21 22 23 24 25 26 27 28 29 30 31 32 33 34 35 36 37 38 39 40 41 42 43 44 45 46 47 48 49 50

000
ASUS43 KMKX 240900
RWRWI

WISCONSIN REGIONAL WEATHER ROUNDUP
NATIONAL WEATHER SERVICE MILWAUKEE/SULLIVAN WI
400 AM CDT THU APR 24 2014

NOTE: "FAIR" INDICATES FEW OR NO CLOUDS BELOW 12,000 FEET WITH NO
SIGNIFICANT WEATHER AND/OR OBSTRUCTIONS TO VISIBILITY.

WIZ001-002-006>008-014>016-023>028-241000-
NORTHWEST WISCONSIN

CITY           SKY/WX    TMP DP  RH WIND       PRES   REMARKS
SUPERIOR ARPT  DRIZZLE   34  34 100 NE7       29.99F WCI  28
ASHLAND        MIX PCPN  37  37 100 E5        30.04F WCI  33
HAYWARD        LGT RAIN  37  34  89 E8        29.98F WCI  31
SIREN          CLOUDY    40  38  92 SE9       29.91F WCI  34
RICE LAKE      LGT RAIN  39  37  91 E14G22    29.96F WCI  31
LADYSMITH      DRIZZLE   38  37  95 SE9       30.02F WCI  31
EAU CLAIRE     CLOUDY    39  37  92 SE16G22   29.95F WCI  30
MENOMONIE      CLOUDY    41  38  88 E16G23    29.93F
NEW RICHMOND   LGT RAIN  41  40  95 SE12G17   29.90S
OSCEOLA        CLOUDY    42  40  92 SE17G23   29.91F
$$

WIZ003>005-009-010-017-018-241000-
NORTH CENTRAL WISCONSIN

CITY           SKY/WX    TMP DP  RH WIND       PRES   REMARKS
WOODRUFF       LGT SNOW  34  31  88 SE8       30.06S WCI  27
RHINELANDER    LGT SNOW  33  31  92 E9        30.07F FOG     WCI  25
EAGLE RIVER    CLOUDY    37  25  61 SW5       30.07R WCI  34
LAND O LAKES   CLOUDY    39  17  41 SW3       30.08R
PHILLIPS       RAIN      33  32  96 E8        30.02F WCI  26
TOMAHAWK       LGT SNOW  32  30  93 CALM      30.05F
MEDFORD        CLOUDY    36  24  60 E9        30.01F WCI  29
MERRILL        CLOUDY    35  31  85 CALM      30.05F
$$

WIZ029-030-035-036-043>047-241000-
CENTRAL WISCONSIN

CITY           SKY/WX    TMP DP  RH WIND       PRES   REMARKS
WAUSAU         CLOUDY    39  19  44 E8        30.03F WCI  33
MOSINEE        CLOUDY    37  12  35 SE9       30.05F WCI  31
MARSHFIELD     LGT RAIN  35  27  72 E10       30.01F WCI  27
STEVENS POINT  CLOUDY    38  14  36 E7        30.05F WCI  33
WAUPACA        CLOUDY    43  19  39 E5        30.08F
WAUTOMA        NOT AVBL
WISC RAPIDS    LGT RAIN  34  29  82 E6        30.04F WCI  29
CAMP DOUGLAS   NOT AVBL
$$

WIZ011>013-019>022-031-037>040-048>050-241000-
NORTHEAST WISCONSIN

CITY           SKY/WX    TMP DP  RH WIND       PRES   REMARKS
ANTIGO         CLOUDY    37  18  47 E8        30.07F WCI  30
STURGEON BAY   CLOUDY    37  21  52 E7        30.11S WCI  32
GREEN BAY      CLOUDY    41  24  51 NE9       30.11R
MANITOWOC      NOT AVBL
APPLETON       CLOUDY    39  23  52 S3        30.10R
CLINTONVILLE   CLOUDY    41  21  45 CALM      30.10R
OSHKOSH        CLOUDY    40  20  44 SE3       30.08F
$$

WIZ032>034-041-042-053>061-241000-
SOUTHWEST WISCONSIN

CITY           SKY/WX    TMP DP  RH WIND       PRES   REMARKS
LA CROSSE      LGT RAIN  40  35  83 SE14      29.93F WCI  32
SPARTA         LGT RAIN  38  36  93 E10       30.00F WCI  30
VIROQUA        CLOUDY    37  36  99 E16       29.94F WCI  27
BOSCOBEL       LGT RAIN  41  35  79 E7        29.96F
PRAIRIE DU CHI LGT RAIN  41  35  80 E8        29.93F
PLATTEVILLE    MOCLDY    40  33  75 E17       29.96F WCI  31
$$

WIZ056-057-062-063-064-067-068-241000-
SOUTH CENTRAL WISCONSIN

CITY           SKY/WX    TMP DP  RH WIND       PRES   REMARKS
BARABOO/DELLS  RAIN      35  32  88 E9        30.02S WCI  28
LONE ROCK      NOT AVBL
WATERTOWN      LGT RAIN  34  29  81 E12       30.06F WCI  25
MADISON        LGT RAIN  36  30  79 E14       30.02F WCI  27
MIDDLETON      CLOUDY    38  32  79 E13       30.01F WCI  30
MONROE         DRIZZLE   37  36  97 E13       30.00F WCI  28
JANESVILLE     CLOUDY    37  30  75 E14       30.02F WCI  29
$$

WIZ051-052-058>065-066-070>072-241000-
SOUTHEAST WISCONSIN

CITY           SKY/WX    TMP DP  RH WIND       PRES   REMARKS
MILWAUKEE      CLOUDY    39  28  64 NW3       30.10F
WAUKESHA       CLOUDY    34  27  75 CALM      30.10F
MILWAUKEE/TIMM CLOUDY    36  25  64 CALM      30.11S
RACINE         LGT RAIN  37  33  85 CALM      30.11F
BURLINGTON     CLOUDY    34  31  88 E6        30.08F WCI  29
KENOSHA        CLOUDY    37  33  85 CALM      30.10F
FOND DU LAC    LGT RAIN  39  23  52 S8        30.09F WCI  33
SHEBOYGAN      CLOUDY    38  27  64 CALM      30.10R
WEST BEND      CLOUDY    37  19  48 CALM      30.10S
JUNEAU         LGT RAIN  35  24  63 E8        30.09F WCI  28
$$

LSZ147-162-241000-
LAKE SUPERIOR

STATION/POSITION TIME  TEMP    WIND        PRES    WAVE
                       AIR SEA DIR/SP/G            HT/PER
                 (UTC) (F)     (DEG/KT/KT) (MB)    (FT/S)
DEVILS ISLAND    0800   38     250/  5/  5 1018.6F
PORT WING        0800   34      30/  7/  9 1017.3
SAXON HARBOR     0840           CALM  /  1 1017.6S
$$

LMZ867-665-643>646-241000-
LAKE MICHIGAN

STATION/POSITION TIME  TEMP    WIND        PRES    WAVE
                       AIR SEA DIR/SP/G            HT/PER
                 (UTC) (F)     (DEG/KT/KT) (MB)    (FT/S)
NORTHPORT PIER   0800   36     110/  2/  3 1020.0S
SISTER BAY       0823   38     150/  3/  6   N/A
KEWAUNEE LAKESHO 0800   38      40/  4/  4 1019.9F
SHEBOYGAN LAKESH 0800   40      CALM  /  1 1019.9F
PORT WASHINGTON  0800   41      CALM  /  5 1020.3R
MILWAUKEE LAKESH 0800   40     290/  4/  5   N/A
KENOSHA   LAKESH 0800   38     310/  5/  7   N/A
$$

TC  - TEMPERATURE IN CELSIUS
VSB - VISIBILITY IN STATUTE MILES
WCI - WIND CHILL INDEX
HX  - HEAT INDEX




USA.gov is the U.S. government's official web portal to all federal, state and local government web resources and services.